GW3823 Weather Reports


Display with metric or nautical units.
time (UTC)temp
F
wind
direction
speed
MPH
gust
MPH
rain 1hr
in
rain 24hr
in
rain mn
in
humidity
%
barometer
mb
20260510201305 67 171 7.0 21.0 0.00 0.00 0.00 26 1019.2
20260510200304 67 201 7.0 14.0 0.00 0.00 0.00 26 1014.2
20260510195804 65 176 5.0 14.0 0.00 0.00 0.00 24 1014.0
20260510195306 65 130 4.0 15.0 0.00 0.00 0.00 26 1014.0
20260510194805 62 182 7.0 14.0 0.00 0.00 0.00 27 1014.1
20260510194305 65 163 7.0 15.0 0.00 0.00 0.00 25 1013.9
20260510193804 65 171 5.0 9.0 0.00 0.00 0.00 19 1019.0
20260510193304 65 171 5.0 9.0 0.00 0.00 0.00 19 1014.0
20260510192805 65 171 5.0 9.0 0.00 0.00 0.00 19 1019.4
20260510192306 65 171 5.0 9.0 0.00 0.00 0.00 19 1014.2
20260510191804 65 171 5.0 9.0 0.00 0.00 0.00 19 1014.1
20260510190804 65 171 5.0 9.0 0.00 0.00 0.00 28 1014.3
20260510190305 64 171 5.0 9.0 0.00 0.00 0.00 26 1023.2
20260510185804 62 171 5.0 9.0 0.00 0.00 0.00 26 1014.4
20260510185306 62 171 5.0 9.0 0.00 0.00 0.00 27 1025.1
20260510184805 62 171 5.0 9.0 0.00 0.00 0.00 27 1014.4
20260510184304 62 171 5.0 9.0 0.00 0.00 0.00 28 1019.6
20260510183804 62 171 5.0 9.0 0.00 0.00 0.00 26 1014.5
20260510183304 62 171 5.0 9.0 0.00 0.00 0.00 27 1014.6
20260510182306 62 171 5.0 9.0 0.00 0.00 0.00 27 1014.7
20260510181804 62 171 5.0 9.0 0.00 0.00 0.00 28 1014.6
20260510181304 62 171 5.0 9.0 0.00 0.00 0.00 26 1014.6
20260510180804 62 150 8.0 8.0 0.00 0.00 0.00 25 1024.5
20260510180305 62 150 6.0 10.0 0.00 0.00 0.00 26 1014.7
20260510175804 57 182 5.0 12.0 0.00 0.00 0.00 28 1021.6
20260510175306 57 145 4.0 15.0 0.00 0.00 0.00 27 1014.6
20260510174304 57 149 10.0 12.0 0.00 0.00 0.00 28 1014.9
20260510173805 57 206 2.0 14.0 0.00 0.00 0.00 29 1014.9
20260510173304 57 152 6.0 13.0 0.00 0.00 0.00 30 1014.8
20260510172306 57 165 3.0 10.0 0.00 0.00 0.00 29 1014.9
20260510171804 57 158 5.0 12.0 0.00 0.00 0.00 31 1015.0
20260510171303 57 198 5.0 12.0 0.00 0.00 0.00 30 1015.0
20260510170804 57 143 1.0 12.0 0.00 0.00 0.00 30 1015.2
20260510170305 57 159 8.0 12.0 0.00 0.00 0.00 32 1014.9
20260510165804 53 159 8.0 12.0 0.00 0.00 0.00 33 1015.1
20260510165306 54 163 6.0 12.0 0.00 0.00 0.00 32 1015.1
20260510164804 53 172 6.0 13.0 0.00 0.00 0.00 34 1015.2
20260510164303 52 163 5.0 9.0 0.00 0.00 0.00 33 1015.1
20260510163804 51 155 3.0 5.0 0.00 0.00 0.00 34 1015.1
20260510163304 52 155 3.0 5.0 0.00 0.00 0.00 35 1015.2
20260510162804 52 155 3.0 9.0 0.00 0.00 0.00 35 1015.2
20260510162306 52 151 7.0 9.0 0.00 0.00 0.00 35 1015.1
20260510161805 52 159 5.0 12.0 0.00 0.00 0.00 34 1015.1
20260510161304 52 182 5.0 12.0 0.00 0.00 0.00 33 1015.0
20260510160804 50 162 2.0 6.0 0.00 0.00 0.00 35 1014.8
20260510160305 51 178 6.0 9.0 0.00 0.00 0.00 38 1025.9
20260510155804 50 178 6.0 9.0 0.00 0.00 0.00 38 1015.1
20260510154804 49 160 3.0 7.0 0.00 0.00 0.00 41 1015.1
20260510154304 49 160 3.0 13.0 0.00 0.00 0.00 41 1015.1
20260510153804 49 210 3.0 7.0 0.00 0.00 0.00 45 1015.1
20260510153304 48 158 1.0 7.0 0.00 0.00 0.00 45 1025.8
20260510152307 47 148 6.0 10.0 0.00 0.00 0.00 48 1020.7
20260510151804 46 153 5.0 8.0 0.00 0.00 0.00 48 1015.2
20260510150803 46 149 4.0 8.0 0.00 0.00 0.00 49 1015.2
20260510150304 45 159 2.0 8.0 0.00 0.00 0.00 50 1015.1
20260510145804 44 149 5.0 6.0 0.00 0.00 0.00 51 1015.2
20260510145306 43 176 3.0 7.0 0.00 0.00 0.00 54 1026.2
20260510144804 42 176 5.0 7.0 0.00 0.00 0.00 55 1015.3
20260510144304 42 141 4.0 6.0 0.00 0.00 0.00 56 1022.4
20260510143804 41 144 2.0 6.0 0.00 0.00 0.00 56 1015.1
20260510143304 41 136 1.0 6.0 0.00 0.00 0.00 56 1015.3
20260510142804 41 121 1.0 3.0 0.00 0.00 0.00 56 1015.4
20260510142306 40 60 2.0 5.0 0.00 0.00 0.00 58 1015.5
20260510141804 39 44 2.0 5.0 0.00 0.00 0.00 60 1015.4
20260510141303 39 64 1.0 3.0 0.00 0.00 0.00 59 1015.5
20260510140804 37 73 2.0 5.0 0.00 0.00 0.00 63 1026.1
20260510140304 37 264 1.0 3.0 0.00 0.00 0.00 63 1015.3
20260510135804 37 54 0.0 3.0 0.00 0.00 0.00 64 1021.6
20260510135306 36 66 3.0 3.0 0.00 0.00 0.00 67 1015.4
20260510134804 36 68 3.0 5.0 0.00 0.00 0.00 67 1015.4
20260510134304 36 75 2.0 3.0 0.00 0.00 0.00 67 1015.6
20260510133803 35 40 2.0 5.0 0.00 0.00 0.00 67 1015.3
20260510133304 35 68 5.0 5.0 0.00 0.00 0.00 68 1020.7
20260510132804 35 76 1.0 3.0 0.00 0.00 0.00 69 1015.5
20260510132306 34 69 0.0 2.0 0.00 0.00 0.00 72 1015.6
20260510131803 34 69 0.0 2.0 0.00 0.00 0.00 72 1015.6
20260510131304 34 69 0.0 6.0 0.00 0.00 0.00 73 1015.4
20260510130804 34 51 2.0 7.0 0.00 0.00 0.00 72 1015.4
20260510130303 33 35 5.0 8.0 0.00 0.00 0.00 73 1015.4
20260510125804 32 49 4.0 8.0 0.00 0.00 0.00 75 1025.5
20260510125306 32 40 5.0 6.0 0.00 0.00 0.00 75 1015.3
20260510124804 33 40 5.0 8.0 0.00 0.00 0.00 74 1021.4
20260510124304 32 63 4.0 8.0 0.00 0.00 0.00 74 1015.2
20260510123804 32 61 5.0 6.0 0.00 0.00 0.00 74 1015.1
20260510123304 32 59 3.0 7.0 0.00 0.00 0.00 74 1015.1
20260510122804 33 49 5.0 7.0 0.00 0.00 0.00 73 1015.0
20260510122306 32 61 7.0 7.0 0.00 0.00 0.00 73 1025.2
20260510121803 32 45 4.0 6.0 0.00 0.00 0.00 74 1015.0
20260510121304 32 45 4.0 6.0 0.00 0.00 0.00 74 1020.2
20260510120804 33 54 4.0 6.0 0.00 0.00 0.00 73 1014.8
20260510120304 32 44 4.0 5.0 0.00 0.00 0.00 73 1014.9
20260510115803 33 28 1.0 5.0 0.00 0.00 0.00 72 1014.7
20260510115306 32 43 2.0 5.0 0.00 0.00 0.00 73 1014.7
20260510114803 32 69 3.0 5.0 0.00 0.00 0.00 71 1014.7
20260510114304 32 53 2.0 7.0 0.00 0.00 0.00 71 1014.7
20260510113803 36 49 5.0 7.0 0.00 0.00 0.00 67 1020.0
20260510113304 33 58 4.0 6.0 0.00 0.00 0.00 72 1019.3
20260510112804 34 57 4.0 6.0 0.00 0.00 0.00 70 1014.7
20260510112306 34 53 3.0 5.0 0.00 0.00 0.00 71 1014.7
20260510111804 33 34 3.0 7.0 0.00 0.00 0.00 71 1014.8
20260510111303 33 45 3.0 5.0 0.00 0.00 0.00 72 1020.0
20260510110804 33 8 2.0 6.0 0.00 0.00 0.00 72 1014.7
20260510110304 34 65 3.0 6.0 0.00 0.00 0.00 70 1014.6
20260510105306 33 57 4.0 8.0 0.00 0.00 0.00 71 1014.6
20260510104804 33 36 5.0 9.0 0.00 0.00 0.00 64 1014.4
20260510104303 35 43 6.0 7.0 0.00 0.00 0.00 68 1014.3
20260510103304 34 64 5.0 6.0 0.00 0.00 0.00 70 1014.3
20260510102804 35 64 3.0 8.0 0.00 0.00 0.00 68 1024.7
20260510102306 34 86 2.0 6.0 0.00 0.00 0.00 70 1014.3
20260510101804 33 77 6.0 8.0 0.00 0.00 0.00 71 1014.0
20260510101304 33 79 7.0 10.0 0.00 0.00 0.00 71 1014.0
20260510100803 33 81 5.0 9.0 0.00 0.00 0.00 71 1014.1
20260510100304 34 90 6.0 9.0 0.00 0.00 0.00 69 1024.5
20260510095804 34 62 6.0 9.0 0.00 0.00 0.00 70 1014.1
20260510095305 34 44 4.0 6.0 0.00 0.00 0.00 59 1021.7
20260510094803 34 55 3.0 6.0 0.00 0.00 0.00 69 1014.4
20260510093303 35 19 3.0 7.0 0.00 0.00 0.00 68 1014.1
20260510092804 35 74 5.0 7.0 0.00 0.00 0.00 67 1014.2
20260510092306 37 89 5.0 6.0 0.00 0.00 0.00 67 1014.1
20260510091303 35 18 1.0 7.0 0.00 0.00 0.00 67 1014.0
20260510090806 35 51 5.0 9.0 0.00 0.00 0.00 58 1023.3
20260510090307 36 58 5.0 7.0 0.00 0.00 0.00 67 1013.8
20260510085806 37 63 5.0 6.0 0.00 0.00 0.00 65 1013.9
20260510085306 37 63 5.0 6.0 0.00 0.00 0.00 65 1013.7
20260510084306 37 63 5.0 6.0 0.00 0.00 0.00 65 1014.0
20260510083806 37 58 5.0 6.0 0.00 0.00 0.00 52 1013.7
20260510083306 37 68 5.0 6.0 0.00 0.00 0.00 64 1013.8
20260510082807 37 166 0.0 0.0 0.00 0.00 0.00 64 1013.7
20260510082307 37 166 0.0 0.0 0.00 0.00 0.00 64 1013.8
20260510081806 37 166 0.0 0.0 0.00 0.00 0.00 64 1013.7
20260510081307 37 166 0.0 0.0 0.00 0.00 0.00 64 1013.8
20260510080807 37 166 0.0 0.0 0.00 0.00 0.00 64 1013.7
20260510080306 37 166 0.0 0.0 0.00 0.00 0.00 64 1022.1
20260510075807 37 166 0.0 10.0 0.00 0.00 0.00 64 1013.8
20260510075306 49 47 9.0 10.0 0.00 0.00 0.00 40 1013.7
20260510074807 49 47 9.0 10.0 0.00 0.00 0.00 40 1013.7
20260510074307 49 47 9.0 10.0 0.00 0.00 0.00 40 1013.8
20260510073806 49 47 9.0 10.0 0.00 0.00 0.00 40 1013.5
20260510073307 49 47 9.0 10.0 0.00 0.00 0.00 40 1013.6
20260510072307 49 47 9.0 10.0 0.00 0.00 0.00 40 1022.7
20260510071807 49 47 9.0 10.0 0.00 0.00 0.00 40 1013.5
20260510071307 49 47 9.0 10.0 0.00 0.00 0.00 40 1018.1
20260510070806 49 47 9.0 10.0 0.00 0.00 0.00 40 1013.5
20260510070307 49 47 9.0 10.0 0.00 0.00 0.00 40 1013.7
20260510065806 54 47 9.0 10.0 0.00 0.00 0.00 31 1013.3
20260510065306 54 47 9.0 10.0 0.00 0.00 0.00 31 1013.4
20260510064807 54 47 9.0 10.0 0.00 0.00 0.00 31 1013.3
20260510064307 41 47 9.0 10.0 0.00 0.00 0.00 52 1013.1
20260510063806 41 47 9.0 10.0 0.00 0.00 0.00 52 1013.4
20260510063306 41 47 9.0 10.0 0.00 0.00 0.00 52 1013.0
20260510062807 41 47 9.0 10.0 0.00 0.00 0.00 52 1013.2
20260510062307 41 47 9.0 10.0 0.00 0.00 0.00 52 1012.9
20260510061806 41 47 9.0 10.0 0.00 0.00 0.00 39 1019.2
20260510061306 41 47 9.0 10.0 0.00 0.00 0.00 52 1013.0
20260510060807 41 47 9.0 10.0 0.00 0.00 0.00 39 1018.7
20260510054307 41 47 7.0 10.0 0.00 0.00 0.00 31 1019.4
20260510052307 55 60 7.0 9.0 0.00 0.00 0.00 47 1012.5
20260510051807 55 55 8.0 9.0 0.00 0.00 0.00 47 1012.2
20260510051306 55 55 8.0 9.0 0.00 0.00 0.00 47 1012.2
20260510050806 55 55 4.0 9.0 0.00 0.00 0.00 46 1012.2
20260510050306 55 59 2.0 2.0 0.00 0.00 0.00 44 1011.8
20260510045807 45 60 3.0 5.0 0.00 0.00 0.00 33 1019.6
20260510045307 47 96 2.0 5.0 0.00 0.00 0.00 41 1011.9
20260510044807 46 96 2.0 5.0 0.00 0.00 0.00 23 1011.9
20260510044307 45 96 2.0 10.0 0.00 0.00 0.00 41 1011.7
20260510043807 47 45 1.0 10.0 0.00 0.00 0.00 41 1011.8
20260510042806 46 61 14.0 14.0 0.00 0.00 0.00 43 1011.6
20260510041807 47 61 14.0 14.0 0.00 0.00 0.00 43 1011.5
20260510041306 46 61 14.0 14.0 0.00 0.00 0.00 43 1011.2
20260510040806 47 61 14.0 14.0 0.00 0.00 0.00 43 1019.4
20260510040307 54 67 6.0 6.0 0.00 0.00 0.00 20 1011.3
20260510035806 63 67 6.0 6.0 0.00 0.00 0.00 11 1011.8
20260510034806 54 67 6.0 6.0 0.00 0.00 0.00 36 1012.6
20260510034306 54 67 6.0 6.0 0.00 0.00 0.00 36 1011.9
20260510033806 53 67 6.0 6.0 0.00 0.00 0.00 23 1011.5
20260510033306 55 67 6.0 6.0 0.00 0.00 0.00 36 1012.8
20260510032807 54 67 6.0 6.0 0.00 0.00 0.00 14 1012.2
20260510032307 54 67 6.0 6.0 0.00 0.00 0.00 36 1011.6
20260510031806 53 67 6.0 6.0 0.00 0.00 0.00 24 1010.9
20260510030806 54 67 6.0 6.0 0.00 0.00 0.00 15 1011.7
20260510030306 53 67 6.0 6.0 0.00 0.00 0.00 36 1010.8
20260510025807 55 67 6.0 6.0 0.00 0.00 0.00 17 1012.0
20260510024806 65 1 2.0 6.0 0.00 0.00 0.00 10 1011.1
20260510024306 65 358 2.0 2.0 0.00 0.00 0.00 10 1010.4
20260510023807 65 358 2.0 2.0 0.00 0.00 0.00 10 1009.9
20260510023306 65 358 2.0 2.0 0.00 0.00 0.00 10 1011.5
20260510022806 65 358 2.0 2.0 0.00 0.00 0.00 10 1010.9
20260510021806 65 358 2.0 2.0 0.00 0.00 0.00 10 1009.6
20260510021306 65 358 2.0 2.0 0.00 0.00 0.00 10 1011.0
20260510020807 65 358 2.0 2.0 0.00 0.00 0.00 10 1010.5
20260510020306 60 358 2.0 2.0 0.00 0.00 0.00 19 1009.9
20260510015306 62 358 2.0 2.0 0.00 0.00 0.00 17 1010.6
20260510014806 61 358 2.0 2.0 0.00 0.00 0.00 18 1010.4
20260510013806 60 358 2.0 2.0 0.00 0.00 0.00 19 1009.2
20260510013306 62 358 2.0 2.0 0.00 0.00 0.00 17 1010.5
20260510012806 61 358 2.0 2.0 0.00 0.00 0.00 18 1010.0
20260510012307 61 358 2.0 2.0 0.00 0.00 0.00 19 1009.5
20260510011806 62 358 2.0 2.0 0.00 0.00 0.00 17 1010.9
20260510010806 61 358 2.0 3.0 0.00 0.00 0.00 18 1009.6
20260510010306 60 55 3.0 6.0 0.00 0.00 0.00 18 1009.0
20260510005806 70 174 6.0 6.0 0.00 0.00 0.00 11 1010.7
20260510004807 70 174 6.0 6.0 0.00 0.00 0.00 11 1009.4
20260510004306 70 174 6.0 6.0 0.00 0.00 0.00 11 1008.7
20260510003807 70 174 6.0 6.0 0.00 0.00 0.00 11 1010.4
20260510003306 64 174 6.0 6.0 0.00 0.00 0.00 13 1009.8
20260510002307 64 174 6.0 6.0 0.00 0.00 0.00 13 1008.7
20260510001807 65 174 6.0 6.0 0.00 0.00 0.00 12 1008.5
20260510001306 65 174 6.0 6.0 0.00 0.00 0.00 13 1009.7
20260510000806 64 174 6.0 6.0 0.00 0.00 0.00 13 1009.1
20260510000306 65 174 6.0 6.0 0.00 0.00 0.00 12 1010.4
20260509235806 65 174 6.0 6.0 0.00 0.00 0.00 13 1009.8
20260509235307 64 174 6.0 6.0 0.00 0.00 0.00 13 1009.3
20260509234806 64 174 6.0 6.0 0.00 0.00 0.00 13 1008.8
20260509234306 65 174 6.0 6.0 0.00 0.00 0.00 12 1009.9
20260509233806 64 174 6.0 8.0 0.00 0.00 0.00 13 1009.6
20260509232307 66 56 3.0 16.0 0.00 0.00 0.00 15 1008.5
20260509231806 64 229 13.0 16.0 0.00 0.00 0.00 16 1008.4
20260509231306 63 229 13.0 16.0 0.00 0.00 0.00 16 1008.6
20260509230805 65 229 13.0 16.0 0.00 0.00 0.00 15 1010.3
20260509225806 72 157 7.0 10.0 0.00 0.00 0.00 15 1008.7
20260509224306 71 174 7.0 22.0 0.00 0.00 0.00 16 1008.7
20260509223806 71 175 8.0 30.0 0.00 0.00 0.00 15 1013.9
20260509223306 71 166 13.0 30.0 0.00 0.00 0.00 16 1008.5
20260509222806 72 153 12.0 25.0 0.00 0.00 0.00 16 1008.6
20260509221306 72 165 16.0 21.0 0.00 0.00 0.00 17 1008.6
20260509220806 72 165 16.0 21.0 0.00 0.00 0.00 17 1009.6
20260509220306 72 165 16.0 21.0 0.00 0.00 0.00 17 1008.6
20260509215306 71 293 5.0 8.0 0.00 0.00 0.00 18 1008.5
20260509214806 71 210 3.0 22.0 0.00 0.00 0.00 18 1008.5
20260509214306 71 155 15.0 22.0 0.00 0.00 0.00 17 1008.7
20260509213806 71 155 13.0 22.0 0.00 0.00 0.00 17 1008.5
20260509213306 71 234 3.0 15.0 0.00 0.00 0.00 18 1008.6
20260509212806 71 188 6.0 17.0 0.00 0.00 0.00 19 1008.8
20260509212306 71 145 17.0 21.0 0.00 0.00 0.00 19 1016.6
20260509211806 71 175 13.0 17.0 0.00 0.00 0.00 20 1008.6
20260509211306 71 175 13.0 23.0 0.00 0.00 0.00 21 1013.0
20260509210806 71 183 13.0 23.0 0.00 0.00 0.00 20 1008.7
20260509210305 71 183 13.0 23.0 0.00 0.00 0.00 20 1013.1
20260509205806 70 183 13.0 23.0 0.00 0.00 0.00 22 1008.4
20260509205307 70 183 13.0 23.0 0.00 0.00 0.00 21 1008.9
20260509204806 64 183 13.0 23.0 0.00 0.00 0.00 22 1008.5
20260509204306 70 183 13.0 23.0 0.00 0.00 0.00 21 1008.6
20260509203305 70 188 12.0 21.0 0.00 0.00 0.00 23 1008.5
20260509202806 70 171 15.0 20.0 0.00 0.00 0.00 23 1008.7
20260509201806 70 176 9.0 28.0 0.00 0.00 0.00 22 1013.5